When you browse on this site, cookies collect data to enhance your experience and personalize the content and advertising you see.
Visit our Privacy Policy to learn more. By continuing to use the site, you agree to this use of cookies and data.

Hourly Weather Jambol

Today, 16 July, Thursday

Time Temperature Precipitation Wind Pressure Humidity
00:00 +18°C° 0 mm 1 mps 749 mmHg 67%
01:00 +18°C° 0 mm 1 mps 749 mmHg 68%
02:00 +18°C° 0 mm 1 mps 749 mmHg 67%
03:00 +16°C° 0 mm 0 mps 749 mmHg 67%
04:00 +16°C° 0 mm 0 mps 748 mmHg 66%
05:00 +16°C° 0 mm 0 mps 748 mmHg 66%
06:00 +18°C° 0 mm 0 mps 748 mmHg 61%
07:00 +20°C° 0 mm 0 mps 748 mmHg 56%
08:00 +21°C° 0 mm 0 mps 748 mmHg 50%
09:00 +23°C° 0 mm 0 mps 748 mmHg 45%
10:00 +27°C° 0 mm 1 mps 748 mmHg 41%
11:00 +29°C° 0 mm 1 mps 748 mmHg 36%
12:00 +29°C° 0 mm 1 mps 748 mmHg 35%
13:00 +30°C° 0 mm 1 mps 748 mmHg 33%
14:00 +30°C° 0 mm 2 mps 747 mmHg 32%
15:00 +30°C° 0 mm 2 mps 747 mmHg 35%
16:00 +29°C° 0 mm 3 mps 747 mmHg 38%
17:00 +29°C° 0 mm 3 mps 746 mmHg 41%
18:00 +26°C° 0 mm 3 mps 747 mmHg 46%
19:00 +24°C° 0 mm 3 mps 747 mmHg 51%
20:00 +21°C° 0 mm 2 mps 747 mmHg 56%
21:00 +20°C° 0 mm 2 mps 747 mmHg 59%
22:00 +20°C° 0 mm 1 mps 747 mmHg 62%
23:00 +19°C° 0 mm 1 mps 747 mmHg 65%

Tomorrow, 17 July, Friday

Time Temperature Precipitation Wind Pressure Humidity
00:00 +19°C° 0 mm 1 mps 747 mmHg 66%
01:00 +19°C° 0 mm 1 mps 747 mmHg 66%
02:00 +19°C° 0 mm 1 mps 747 mmHg 67%
03:00 +18°C° 0 mm 1 mps 747 mmHg 67%
04:00 +16°C° 0 mm 0 mps 747 mmHg 68%
05:00 +16°C° 0 mm 0 mps 747 mmHg 68%
06:00 +18°C° 0 mm 0 mps 747 mmHg 62%
07:00 +23°C° 0 mm 1 mps 747 mmHg 56%
08:00 +25°C° 0 mm 1 mps 747 mmHg 49%
09:00 +26°C° 0 mm 1 mps 747 mmHg 46%
10:00 +28°C° 0 mm 1 mps 747 mmHg 43%
11:00 +30°C° 0 mm 1 mps 747 mmHg 40%
12:00 +30°C° 0 mm 2 mps 747 mmHg 39%
13:00 +31°C° 0 mm 2 mps 747 mmHg 37%
14:00 +31°C° 0 mm 2 mps 747 mmHg 36%
15:00 +31°C° 0 mm 3 mps 747 mmHg 37%
16:00 +30°C° 0 mm 4 mps 746 mmHg 38%
17:00 +30°C° 0 mm 4 mps 746 mmHg 39%
18:00 +28°C° 0 mm 4 mps 746 mmHg 45%
19:00 +25°C° 0 mm 3 mps 746 mmHg 51%
20:00 +22°C° 0 mm 3 mps 746 mmHg 58%
21:00 +21°C° 0 mm 3 mps 746 mmHg 62%
22:00 +20°C° 0 mm 2 mps 747 mmHg 67%
23:00 +19°C° 0 mm 2 mps 747 mmHg 72%

Day after tomorrow, 18 July, Saturday

Time Temperature Precipitation Wind Pressure Humidity
00:00 +20°C° 0 mm 1 mps 747 mmHg 73%
01:00 +19°C° 0 mm 1 mps 747 mmHg 75%
02:00 +17°C° 0 mm 0 mps 747 mmHg 77%
03:00 +16°C° 0 mm 0 mps 747 mmHg 77%
04:00 +16°C° 0 mm 0 mps 747 mmHg 77%
05:00 +16°C° 0 mm 0 mps 747 mmHg 77%
06:00 +20°C° 0 mm 1 mps 747 mmHg 68%
07:00 +23°C° 0 mm 1 mps 747 mmHg 60%
08:00 +25°C° 0 mm 1 mps 747 mmHg 51%
09:00 +26°C° 0 mm 2 mps 747 mmHg 46%
10:00 +28°C° 0 mm 3 mps 747 mmHg 41%
11:00 +30°C° 0 mm 4 mps 747 mmHg 37%
12:00 +32°C° 0 mm 4 mps 746 mmHg 36%
13:00 +32°C° 0 mm 4 mps 746 mmHg 35%
14:00 +33°C° 0 mm 5 mps 746 mmHg 35%
15:00 +32°C° 0 mm 5 mps 746 mmHg 38%
16:00 +32°C° 0 mm 5 mps 745 mmHg 40%
17:00 +30°C° 0 mm 6 mps 745 mmHg 43%
18:00 +28°C° 0 mm 5 mps 746 mmHg 53%
19:00 +26°C° 0 mm 4 mps 746 mmHg 63%
20:00 +24°C° 0 mm 3 mps 746 mmHg 72%
21:00 +22°C° 0 mm 3 mps 746 mmHg 78%
22:00 +21°C° 0 mm 2 mps 747 mmHg 83%
23:00 +20°C° 0 mm 2 mps 747 mmHg 89%

19 July, Sunday

Time Temperature Precipitation Wind Pressure Humidity
00:00 +19°C° 0 mm 2 mps 747 mmHg 88%
01:00 +19°C° 0 mm 2 mps 747 mmHg 88%
02:00 +19°C° 0 mm 2 mps 747 mmHg 88%
03:00 +19°C° 0 mm 2 mps 747 mmHg 89%
04:00 +18°C° 0 mm 2 mps 747 mmHg 89%
05:00 +19°C° 0 mm 1 mps 747 mmHg 90%
06:00 +20°C° 0 mm 2 mps 747 mmHg 82%
07:00 +21°C° 0 mm 2 mps 747 mmHg 74%
08:00 +24°C° 0 mm 2 mps 747 mmHg 66%
09:00 +25°C° 0 mm 2 mps 747 mmHg 60%
10:00 +27°C° 0 mm 2 mps 747 mmHg 54%
11:00 +29°C° 0 mm 2 mps 747 mmHg 47%
12:00 +29°C° 0 mm 2 mps 747 mmHg 44%
13:00 +30°C° 0 mm 2 mps 747 mmHg 41%
14:00 +31°C° 0 mm 3 mps 747 mmHg 38%
15:00 +31°C° 0 mm 3 mps 746 mmHg 39%
16:00 +31°C° 0 mm 3 mps 746 mmHg 39%
17:00 +31°C° 0 mm 3 mps 746 mmHg 40%
18:00 +29°C° 0 mm 3 mps 746 mmHg 47%
19:00 +27°C° 0 mm 3 mps 746 mmHg 53%
20:00 +25°C° 0 mm 3 mps 747 mmHg 60%
21:00 +24°C° 0 mm 2 mps 747 mmHg 64%
22:00 +24°C° 0 mm 2 mps 747 mmHg 69%
23:00 +23°C° 0 mm 2 mps 747 mmHg 73%

20 July, Monday

Time Temperature Precipitation Wind Pressure Humidity
00:00 +22°C° 0 mm 1 mps 747 mmHg 76%
01:00 +22°C° 0 mm 1 mps 747 mmHg 78%
02:00 +21°C° 0 mm 1 mps 747 mmHg 81%
03:00 +21°C° 0 mm 1 mps 747 mmHg 80%
04:00 +21°C° 0 mm 1 mps 747 mmHg 80%
05:00 +21°C° 0 mm 1 mps 747 mmHg 79%
06:00 +23°C° 0 mm 1 mps 747 mmHg 71%
07:00 +25°C° 0 mm 1 mps 747 mmHg 62%
08:00 +27°C° 0 mm 1 mps 747 mmHg 54%
09:00 +28°C° 0.1 mm 1 mps 747 mmHg 50%
10:00 +30°C° 0.1 mm 1 mps 747 mmHg 45%
11:00 +31°C° 0.1 mm 1 mps 747 mmHg 41%
12:00 +31°C° 0.1 mm 2 mps 747 mmHg 41%
13:00 +31°C° 0.1 mm 2 mps 747 mmHg 42%
14:00 +31°C° 0.1 mm 2 mps 746 mmHg 42%
15:00 +31°C° 0 mm 2 mps 746 mmHg 41%
16:00 +31°C° 0 mm 2 mps 746 mmHg 41%
17:00 +31°C° 0 mm 2 mps 746 mmHg 41%
18:00 +29°C° 0 mm 2 mps 746 mmHg 45%
19:00 +28°C° 0 mm 2 mps 747 mmHg 50%
20:00 +26°C° 0 mm 2 mps 747 mmHg 54%
21:00 +25°C° 0 mm 2 mps 747 mmHg 55%
22:00 +25°C° 0 mm 1 mps 747 mmHg 56%
23:00 +24°C° 0 mm 1 mps 748 mmHg 56%

21 July, Tuesday

Time Temperature Precipitation Wind Pressure Humidity
00:00 +23°C° 0 mm 1 mps 748 mmHg 58%
01:00 +23°C° 0 mm 1 mps 748 mmHg 61%
02:00 +22°C° 0 mm 1 mps 748 mmHg 63%
03:00 +21°C° 0 mm 1 mps 748 mmHg 66%
04:00 +21°C° 0 mm 1 mps 748 mmHg 69%
05:00 +20°C° 0 mm 1 mps 748 mmHg 72%
06:00 +21°C° 0 mm 2 mps 748 mmHg 66%
07:00 +24°C° 0 mm 2 mps 748 mmHg 60%
08:00 +26°C° 0 mm 3 mps 748 mmHg 54%
09:00 +28°C° 0 mm 3 mps 748 mmHg 49%
10:00 +29°C° 0 mm 4 mps 749 mmHg 44%
11:00 +32°C° 0 mm 4 mps 749 mmHg 38%
12:00 +33°C° 0 mm 4 mps 748 mmHg 37%
13:00 +33°C° 0 mm 4 mps 748 mmHg 35%
14:00 +34°C° 0 mm 5 mps 748 mmHg 33%
15:00 +34°C° 0 mm 4 mps 748 mmHg 34%
16:00 +34°C° 0 mm 4 mps 748 mmHg 34%
17:00 +34°C° 0 mm 4 mps 747 mmHg 35%
18:00 +31°C° 0 mm 3 mps 748 mmHg 40%
19:00 +29°C° 0 mm 2 mps 748 mmHg 45%
20:00 +27°C° 0 mm 2 mps 748 mmHg 51%
21:00 +26°C° 0 mm 2 mps 748 mmHg 54%
22:00 +25°C° 0 mm 2 mps 748 mmHg 56%
23:00 +24°C° 0 mm 2 mps 749 mmHg 59%
Show more